STARLINK-1219, 45210

Orbit data source: Space-Track

STARLINK-1219, 45210 is a payload satellite owned by SpaceX/Seattle (US) in LEO that was launched on Mon, 17 Feb 2020 UTC via an FALCON 9 launch vehicle from the Air Force Eastern Test Range (AFETR). Payload-class satellites include a variety of spacecraft equipped with specific instruments for various scientific and technological missions. These include communications satellites like Starlink; space stations such as the ISS; scientific satellites like the Hubble; Earth observation satellites from companies like Planet Labs, Umbra, and HawkEye 360; GPS; miniature CubeSats for education and research; and military/defense satellites.

Loading next visibility...
Identifier
45210, 2020-012AJ
Orbit
LEO
Last TLE update
7 hours ago
Origin
Manufacturer
SpaceX/Seattle
Mission
Partially operational Commercial Communications
Bus & Motor
STARLINK, Unknown motor
Mass
260 kg wet, ~248 kg dry
Launch date (UTC)
2020-02-17 (5 years ago)
Launch vehicle
FALCON 9
Launch site
Air Force Eastern Test Range (AFETR)
Object type
Payload
Rocket body
Debris
Shape & HBR
Box + 1 Pan, 8.86 m
Radar Cross Section
13.562 m², Large (>1 m²)

Expand to show TLE details & history

TLE from 7 hours ago
0 STARLINK-1219
1 45210U 20012AJ  25129.58335648  .00134654  00000-0  16265-2 0  9993
2 45210  53.0539 295.1698 0005122 283.0550 145.3435 15.59799395288579
Epoch: 2025-05-09T14:00Z
Definitive object data (Epoch: 2025-05-09T14:00:01.999Z)
Latitude
48.15679°
Longitude
-85.84046°
Altitude
396.465 km
Speed
7.677 km/s
True Right ascension
23h 27m 13s
True Declination
47° 58' 36"
Sunlit
Object was in daylight at TLE epoch
Visualization TLE readout
Latitude
-22.78144°
Longitude
54.46007°
Altitude
393.623 km
Speed
7.675 km/s
Apparent Right ascension
12h 03m 09s
Apparent Declination
-50° 21' 05"
Sunlit
Object is in daylight
Visualization observer readout
Local Sidereal Time
04:56:15
Azimuth
127.725° SE
Elevation
-39.413°
Doppler factor
1
Orbital elements
Apogee altitude
391.98 km
Perigee altitude
385.048 km
Semi-major axis
6,766.651 km
Eccentricity
0.0005122
Inclination
53.0539°
RAAN
295.1698°
Arg. of periapsis
283.055°
True anomaly
145.37686°
Mean anomaly
145.3435°
Eccentric anomaly
145.36018°
Mean motion
3.89926 °/min
BSTAR
0.0016265
Orbital period
92.33 mins
Loading maneuver chart data...
Loading SW <> Apogee altitude chart data...

STARLINK-1219 Visibility forecast

Observer location: undefined°, undefined°

Span
Click to sort rows by Start time (UTC) header in descending order
Start Az.
Max El. time (UTC)
Max El. Az.
Max El.
End time (UTC)
End Az.
4 mins2025-05-10 12:57:04.039Z174.066° S2025-05-10 12:58:04.039Z145.994° SSE24.067°2025-05-10 13:01:04.039Z72.984° E
4 mins2025-05-10 14:33:04.039Z287.426° WNW2025-05-10 14:34:04.039Z317.052° NNW24.918°2025-05-10 14:37:04.039Z30.369° NE
|